Clinton, IA

5:30 PM CST on February 22, 2018 (GMT -0600)
Clinton Municipal

Weather History for KCWI - June, 2013

Change the Weather History Date:

Friday, June 28, 2013

  Actual Average Record
Temperature  
Mean Temperature 72 °F -  
Max Temperature 82 °F 84 °F 96 °F (1952)
Min Temperature 62 °F 63 °F 47 °F (1968)
Cooling Degree Days 7    
Growing Degree Days 22 (Base 50)    
Moisture  
Dew Point 53 °F    
Average Humidity 52    
Maximum Humidity 73    
Minimum Humidity 37    
Precipitation  
Precipitation 0.00 in - - ()
Sea Level Pressure  
Sea Level Pressure 29.75 in    
Wind  
Wind Speed 11 mph (NW)    
Max Wind Speed 26 mph    
Max Gust Speed 36 mph    
Visibility 10 miles    
Events      
Averages and records for this station are not official NWS values.
T = Trace of Precipitation, MM = Missing Value Source: NWS Daily Summary

Daily Weather History Graph

Daily Weather History Graph

Search for Another Location

Airport or City:

Trip Planner

Search our weather history database for the weather conditions in past years. The results will help you decide how hot, cold, wet, or windy it might be!

Date:

Astronomy

Jun. 28, 2013 Rise Set
Actual Time 5:28 AM CDT 8:40 PM CDT
Civil Twilight 4:54 AM CDT 9:14 PM CDT
Nautical Twilight 4:10 AM CDT 9:58 PM CDT
Astronomical Twilight 3:17 AM CDT 10:51 PM CDT
Moon No Moon Rise 11:42 AM CDT (6/28)
Length of Visible Light 16h 19m
Length of Day
15h 11m
Waning Gibbous, 66% of the Moon is Illuminated
Jun 28
Waning Gibbous
Jun 29
Last Quarter
Jul 8
New
Jul 15
First Quarter
Jul 22
Full

Hourly Weather History & Observations

Time (CDT) Temp. Heat Index Dew Point Humidity Pressure Visibility Wind Dir Wind Speed Gust Speed Precip Events Conditions
12:15 AM 68.0 °F - 53.6 °F 60% 29.83 in 10.0 mi West 6.9 mph - N/A   Clear
12:35 AM 66.2 °F - 53.6 °F 64% 29.83 in 10.0 mi WNW 6.9 mph - N/A   Clear
12:55 AM 66.2 °F - 53.6 °F 64% 29.83 in 10.0 mi WNW 9.2 mph - N/A   Clear
1:35 AM 66.2 °F - 53.6 °F 64% 29.81 in 10.0 mi NW 10.4 mph - N/A   Clear
1:55 AM 68.0 °F - 53.6 °F 60% 29.80 in 10.0 mi NW 10.4 mph - N/A   Clear
2:15 AM 66.2 °F - 53.6 °F 64% 29.80 in 10.0 mi North 3.5 mph - N/A   Clear
2:35 AM 64.4 °F - 53.6 °F 68% 29.80 in 10.0 mi NW 3.5 mph - N/A   Clear
2:55 AM 66.2 °F - 53.6 °F 64% 29.79 in 10.0 mi Calm Calm - N/A   Clear
3:15 AM 64.4 °F - 53.6 °F 68% 29.79 in 10.0 mi WNW 9.2 mph - N/A   Clear
3:35 AM 64.4 °F - 53.6 °F 68% 29.79 in 10.0 mi West 6.9 mph - N/A   Clear
3:55 AM 64.4 °F - 53.6 °F 68% 29.78 in 10.0 mi West 9.2 mph - N/A   Clear
4:15 AM 62.6 °F - 53.6 °F 72% 29.78 in 10.0 mi WNW 6.9 mph - N/A   Clear
4:35 AM 62.6 °F - 53.6 °F 72% 29.78 in 10.0 mi WNW 8.1 mph - N/A   Clear
4:55 AM 62.6 °F - 53.6 °F 72% 29.77 in 10.0 mi WNW 6.9 mph - N/A   Clear
5:15 AM 62.6 °F - 53.6 °F 72% 29.77 in 10.0 mi WNW 5.8 mph - N/A   Clear
5:35 AM 62.6 °F - 53.6 °F 72% 29.77 in 10.0 mi NW 5.8 mph - N/A   Clear
5:55 AM 62.6 °F - 53.6 °F 72% 29.77 in 10.0 mi WNW 8.1 mph - N/A   Clear
6:15 AM 64.4 °F - 53.6 °F 68% 29.78 in 10.0 mi WNW 8.1 mph - N/A   Clear
6:35 AM 64.4 °F - 55.4 °F 73% 29.78 in 10.0 mi WNW 8.1 mph - N/A   Clear
6:55 AM 66.2 °F - 55.4 °F 68% 29.78 in 10.0 mi WNW 8.1 mph - N/A   Clear
7:15 AM 66.2 °F - 55.4 °F 68% 29.78 in 10.0 mi WNW 9.2 mph - N/A   Clear
7:35 AM 69.8 °F - 55.4 °F 60% 29.78 in 10.0 mi WNW 9.2 mph - N/A   Clear
7:55 AM 69.8 °F - 55.4 °F 60% 29.79 in 10.0 mi WNW 9.2 mph - N/A   Clear
8:15 AM 71.6 °F - 55.4 °F 57% 29.79 in 10.0 mi NW 10.4 mph - N/A   Clear
8:35 AM 73.4 °F - 55.4 °F 53% 29.79 in 10.0 mi NW 10.4 mph - N/A   Clear
8:55 AM 73.4 °F - 55.4 °F 53% 29.79 in 10.0 mi NW 11.5 mph 16.1 mph N/A   Clear
9:15 AM 75.2 °F - 55.4 °F 50% 29.79 in 10.0 mi NW 12.7 mph 16.1 mph N/A   Clear
9:35 AM 77.0 °F - 53.6 °F 44% 29.78 in 10.0 mi NW 11.5 mph - N/A   Clear
9:55 AM 77.0 °F - 53.6 °F 44% 29.78 in 10.0 mi NW 12.7 mph - N/A   Clear
10:15 AM 78.8 °F - 53.6 °F 42% 29.78 in 10.0 mi NW 13.8 mph 19.6 mph N/A   Clear
10:35 AM 78.8 °F - 53.6 °F 42% 29.78 in 10.0 mi NW 12.7 mph - N/A   Clear
10:55 AM 80.6 °F 80.5 °F 55.4 °F 42% 29.77 in 10.0 mi NW 15.0 mph 21.9 mph N/A   Clear
11:15 AM 80.6 °F 80.3 °F 53.6 °F 39% 29.77 in 10.0 mi NW 15.0 mph 21.9 mph N/A   Clear
11:35 AM 80.6 °F 80.3 °F 53.6 °F 39% 29.77 in 10.0 mi NW 20.7 mph 24.2 mph N/A   Clear
11:55 AM 80.6 °F 80.3 °F 53.6 °F 39% 29.76 in 10.0 mi WNW 21.9 mph 26.5 mph N/A   Partly Cloudy
12:15 PM 80.6 °F 80.3 °F 53.6 °F 39% 29.76 in 10.0 mi WNW 17.3 mph 23.0 mph N/A   Clear
12:35 PM 80.6 °F 80.3 °F 53.6 °F 39% 29.75 in 10.0 mi WNW 21.9 mph 27.6 mph N/A   Scattered Clouds
12:55 PM 80.6 °F 80.3 °F 53.6 °F 39% 29.75 in 10.0 mi WNW 18.4 mph 29.9 mph N/A   Partly Cloudy
1:15 PM 82.4 °F 81.4 °F 53.6 °F 37% 29.74 in 10.0 mi WNW 15.0 mph 26.5 mph N/A   Scattered Clouds
1:35 PM 82.4 °F 81.4 °F 53.6 °F 37% 29.73 in 10.0 mi WNW 19.6 mph 27.6 mph N/A   Scattered Clouds
1:55 PM 80.6 °F - 51.8 °F 37% 29.73 in 10.0 mi WNW 19.6 mph 26.5 mph N/A   Scattered Clouds
2:15 PM 80.6 °F 80.3 °F 53.6 °F 39% 29.72 in 10.0 mi WNW 25.3 mph 31.1 mph N/A   Mostly Cloudy
2:35 PM 78.8 °F - 51.8 °F 39% 29.72 in 10.0 mi WNW 20.7 mph 27.6 mph N/A   Mostly Cloudy
2:55 PM 78.8 °F - 51.8 °F 39% 29.72 in 10.0 mi NW 21.9 mph 34.5 mph N/A   Mostly Cloudy
3:15 PM 80.6 °F - 51.8 °F 37% 29.72 in 10.0 mi NW 21.9 mph 35.7 mph N/A   Scattered Clouds
3:35 PM 78.8 °F - 51.8 °F 39% 29.72 in 10.0 mi NW 18.4 mph 29.9 mph N/A   Clear
3:55 PM 80.6 °F 80.3 °F 53.6 °F 39% 29.72 in 10.0 mi NW 23.0 mph 29.9 mph N/A   Partly Cloudy
4:15 PM 78.8 °F - 51.8 °F 39% 29.72 in 10.0 mi NW 26.5 mph 33.4 mph N/A   Partly Cloudy
4:35 PM 80.6 °F - 51.8 °F 37% 29.71 in 10.0 mi NW 25.3 mph 34.5 mph N/A   Partly Cloudy
4:55 PM 80.6 °F - 51.8 °F 37% 29.71 in 10.0 mi NW 21.9 mph 32.2 mph N/A   Clear
5:15 PM 80.6 °F - 51.8 °F 37% 29.71 in 10.0 mi NW 24.2 mph 31.1 mph N/A   Scattered Clouds
5:35 PM 80.6 °F - 51.8 °F 37% 29.71 in 10.0 mi NNW 19.6 mph 31.1 mph N/A   Mostly Cloudy
5:55 PM 78.8 °F - 51.8 °F 39% 29.71 in 10.0 mi NW 23.0 mph 27.6 mph N/A   Partly Cloudy
6:15 PM 78.8 °F - 51.8 °F 39% 29.70 in 10.0 mi NW 16.1 mph 24.2 mph N/A   Clear
6:35 PM 78.8 °F - 51.8 °F 39% 29.71 in 10.0 mi NNW 19.6 mph 23.0 mph N/A   Scattered Clouds
6:55 PM 75.2 °F - 51.8 °F 44% 29.71 in 10.0 mi NNW 17.3 mph 24.2 mph N/A   Partly Cloudy
7:15 PM 75.2 °F - 51.8 °F 44% 29.71 in 10.0 mi NNW 16.1 mph 25.3 mph N/A   Partly Cloudy
7:35 PM 75.2 °F - 51.8 °F 44% 29.71 in 10.0 mi NNW 11.5 mph - N/A   Partly Cloudy
7:55 PM 73.4 °F - 51.8 °F 47% 29.71 in 10.0 mi NW 11.5 mph - N/A   Clear
8:15 PM 73.4 °F - 51.8 °F 47% 29.71 in 10.0 mi NW 10.4 mph - N/A   Clear
8:35 PM 73.4 °F - 51.8 °F 47% 29.71 in 10.0 mi NNW 11.5 mph - N/A   Partly Cloudy
8:55 PM 71.6 °F - 53.6 °F 53% 29.72 in 10.0 mi North 9.2 mph - N/A   Mostly Cloudy
9:15 PM 71.6 °F - 53.6 °F 53% 29.72 in 10.0 mi North 6.9 mph - N/A   Overcast
9:35 PM 69.8 °F - 53.6 °F 56% 29.72 in 10.0 mi NNW 9.2 mph - N/A   Overcast
9:55 PM 69.8 °F - 53.6 °F 56% 29.72 in 10.0 mi NNW 8.1 mph - N/A   Scattered Clouds
10:15 PM 69.8 °F - 53.6 °F 56% 29.72 in 10.0 mi North 5.8 mph - N/A   Scattered Clouds
10:35 PM 66.2 °F - 53.6 °F 64% 29.71 in 10.0 mi NW 6.9 mph - N/A   Partly Cloudy
10:55 PM 68.0 °F - 53.6 °F 60% 29.71 in 10.0 mi NNW 8.1 mph - N/A   Clear
11:15 PM 66.2 °F - 53.6 °F 64% 29.70 in 10.0 mi WNW 8.1 mph - N/A   Clear
11:35 PM 64.4 °F - 53.6 °F 68% 29.70 in 10.0 mi WNW 6.9 mph - N/A   Clear
11:55 PM 64.4 °F - 55.4 °F 73% 29.70 in 10.0 mi NW 6.9 mph - N/A   Clear